Regional Weather Roundup
Issued by NWS Spokane, WA

Home | Current Version | Previous Version | Text Only | Print | Product List | Glossary On
Versions: 1 2 3 4 5 6 7 8 9 10 11 12 13 14 15 16 17 18 19 20 21 22 23 24 25 26 27 28 29 30 31 32 33 34 35 36 37 38 39 40 41 42 43 44 45 46 47 48 49 50
000
NZUS01 KOTX 070510
RWROTX
EASTERN WASHINGTON/NORTHERN IDAHO ROUNDUP
NATIONAL WEATHER SERVICE, SPOKANE WA
900 PM PST FRI MAR 06 2015

Note: "fair" indicated few or no clouds below 12,000 feet with no
significant weather and/or obstructions to visibility.

...NORTHEAST WASHINGTON AND NORTHERN IDAHO PANHANDLE...

CITY           SKY/WX    TMP DP  RH WIND       PRES   REMARKS
SPOKANE INTL   PTCLDY    43  29  57 SW3       30.29S
SPOKANE DOWNTO PTCLDY    42  28  57 NE3       30.30S
COEUR D ALENE  PTCLDY    36  27  69 E5        30.30R
DEER PARK      PTCLDY    33  26  75 N3        30.30S
SANDPOINT      CLEAR     32  28  86 CALM      30.31R
BONNERS FERRY  FAIR      36  25  64 CALM      30.31R

...SOUTHEAST WASHINGTON AND SOUTHERN IDAHO PANHANDLE...

CITY           SKY/WX    TMP DP  RH WIND       PRES   REMARKS
WALLA WALLA    MOCLDY    50  29  44 E7        30.29S
PULLMAN/MOSCOW MOCLDY    41  28  60 E3        30.32S
LEWISTON       PTCLDY    47  30  51 CALM      30.31R
LOWELL           N/A     36  31  82 N3        30.38R

...COLUMBIA BASIN...

CITY           SKY/WX    TMP DP  RH WIND       PRES   REMARKS
EPHRATA        MOCLDY    47  32  56 NW8       30.28F
MOSES LAKE     MOCLDY    42  32  67 N5        30.30S
TRI CITIES     MOCLDY    41  34  76 CALM      30.30S
HERMISTON      MOCLDY    46  33  60 S5        30.28S
PENDLETON      MOCLDY    43  31  62 SE9       30.29S

...EAST SLOPES CASCADES...

CITY           SKY/WX    TMP DP  RH WIND       PRES   REMARKS
THE DALLES     MOCLDY    50  34  54 E3        30.29R
YAKIMA         MOCLDY    43  34  70 NW8       30.30S
ELLENSBURG     MOCLDY    48  32  53 N5        30.29S
WENATCHEE      MOCLDY    50  33  52 CALM      30.29S
OMAK           PTCLDY    39  30  70 NW3       30.32R

...SOUTHERN BRITISH COLUMBIA...

CITY           SKY/WX    TMP DP  RH WIND       PRES   REMARKS
PENTICTON      MOCLDY    36  28  75 N8        30.35S
CRANBROOK      PTCLDY    37  21  52 NW3       30.26S

...WESTERN MONTANA...

CITY           SKY/WX    TMP DP  RH WIND       PRES   REMARKS
MISSOULA       MOCLDY    46  23  40 NW5       30.29S

...NEIGHBORING CITIES...

CITY           SKY/WX    TMP DP  RH WIND       PRES   REMARKS
SEATTLE        PTCLDY    47  37  68 N5        30.36S
CALGARY        PTCLDY    34  19  55 S3        30.19S



USA.gov is the U.S. government's official web portal to all federal, state and local government web resources and services.